Site:,Clairton,Created:,Wed May  1 04:17:04 2024
,,PAMB_640,PM25_640,TAMB_640
,Time,KPa,UG/M3,DEGC
2024-04-25 00:59,1714021140,98.2,4.5,6.3
2024-04-25 01:59,1714024740,98.2,5.4,6.1
2024-04-25 02:59,1714028340,98.2,5.3,6.2
2024-04-25 03:59,1714031940,98.2,5.3,6.0
2024-04-25 04:59,1714035540,98.2,6.2,5.8
2024-04-25 05:59,1714039140,98.6,6.1,5.7
2024-04-25 06:59,1714042740,98.7,6.4,6.1
2024-04-25 07:59,1714046340,98.7,6.9,7.1
2024-04-25 08:59,1714049940,98.7,6.4,8.7
2024-04-25 09:59,1714053540,98.7,6.1,9.7
2024-04-25 10:59,1714057140,98.7,4.8,10.6
2024-04-25 11:59,1714060740,98.7,4.3,11.7
2024-04-25 12:59,1714064340,98.7,4.9,12.6
2024-04-25 13:59,1714067940,98.7,4.3,13.4
2024-04-25 14:59,1714071540,98.6,4.7,14.2
2024-04-25 15:59,1714075140,98.3,4.7,14.3
2024-04-25 16:59,1714078740,98.2,4.6,15.2
2024-04-25 17:59,1714082340,98.2,4.5,14.4
2024-04-25 18:59,1714085940,98.2,4.8,13.9
2024-04-25 19:59,1714089540,98.2,4.5,12.3
2024-04-25 20:59,1714093140,98.6,4.4,10.9
2024-04-25 21:59,1714096740,98.7,4.3,8.9
2024-04-25 22:59,1714100340,98.7,4.4,6.9
2024-04-25 23:59,1714103940,98.7,4.5,5.7
2024-04-26 00:59,1714107540,98.7,5.9,5.3
2024-04-26 01:59,1714111140,98.7,6.8,4.8
2024-04-26 02:59,1714114740,98.7,6.7,4.7
2024-04-26 03:59,1714118340,98.7,5.9,5.3
2024-04-26 04:59,1714121940,98.7,6.1,5.1
2024-04-26 05:59,1714125540,98.7,6.4,5.4
2024-04-26 06:59,1714129140,98.7,7.9,7.6
2024-04-26 07:59,1714132740,98.7,8.4,11.3
2024-04-26 08:59,1714136340,98.7,7.9,14.3
2024-04-26 09:59,1714139940,98.7,7.0,16.9
2024-04-26 10:59,1714143540,98.7,6.0,18.8
2024-04-26 11:59,1714147140,98.7,5.8,20.1
2024-04-26 12:59,1714150740,98.7,5.4,20.9
2024-04-26 13:59,1714154340,98.3,5.6,21.1
2024-04-26 14:59,1714157940,98.4,6.8,21.5
2024-04-26 15:59,1714161540,98.2,6.8,21.6
2024-04-26 16:59,1714165140,98.2,6.3,21.4
2024-04-26 17:59,1714168740,98.2,6.2,20.5
2024-04-26 18:59,1714172340,98.2,5.6,19.0
2024-04-26 19:59,1714175940,98.2,5.6,17.5
2024-04-26 20:59,1714179540,98.2,6.1,16.4
2024-04-26 21:59,1714183140,98.2,6.5,15.7
2024-04-26 22:59,1714186740,98.2,6.1,15.2
2024-04-26 23:59,1714190340,98.2,5.9,15.1
2024-04-27 00:59,1714193940,98.2,5.7,14.7
2024-04-27 01:59,1714197540,98.1,5.7,14.6
2024-04-27 02:59,1714201140,98.2,5.4,14.5
2024-04-27 03:59,1714204740,98.2,5.5,12.9
2024-04-27 04:59,1714208340,98.2,5.4,11.9
2024-04-27 05:59,1714211940,98.2,5.6,12.2
2024-04-27 06:59,1714215540,98.2,5.7,12.4
2024-04-27 07:59,1714219140,98.2,5.7,13.5
2024-04-27 08:59,1714222740,98.2,6.1,14.8
2024-04-27 09:59,1714226340,98.2,6.6,16.5
2024-04-27 10:59,1714229940,98.2,8.0,19.4
2024-04-27 11:59,1714233540,98.2,10.4,22.5
2024-04-27 12:59,1714237140,98.2,11.7,23.7
2024-04-27 13:59,1714240740,98.2,12.2,26.4
2024-04-27 14:59,1714244340,98.2,13.1,27.7
2024-04-27 15:59,1714247940,98.2,12.1,27.6
2024-04-27 16:59,1714251540,98.3,10.9,27.3
2024-04-27 17:59,1714255140,98.2,10.9,26.8
2024-04-27 18:59,1714258740,98.2,11.1,25.8
2024-04-27 19:59,1714262340,98.2,11.4,24.2
2024-04-27 20:59,1714265940,98.2,16.4,23.3
2024-04-27 21:59,1714269540,98.2,14.5,21.8
2024-04-27 22:59,1714273140,98.2,12.0,19.6
2024-04-27 23:59,1714276740,98.2,13.0,18.8
2024-04-28 00:59,1714280340,98.1,13.1,17.4
2024-04-28 01:59,1714283940,98.2,15.5,17.3
2024-04-28 02:59,1714287540,98.2,13.5,17.9
2024-04-28 03:59,1714291140,98.2,12.6,17.0
2024-04-28 04:59,1714294740,98.3,12.6,16.9
2024-04-28 05:59,1714298340,98.3,11.7,17.5
2024-04-28 06:59,1714301940,98.2,12.1,19.8
2024-04-28 07:59,1714305540,98.2,11.6,21.5
2024-04-28 08:59,1714309140,98.3,10.6,23.3
2024-04-28 09:59,1714312740,98.2,9.7,24.8
2024-04-28 10:59,1714316340,98.1,10.1,25.1
2024-04-28 11:59,1714319940,98.2,11.0,26.7
2024-04-28 12:59,1714323540,98.2,11.3,27.4
2024-04-28 13:59,1714327140,98.2,11.3,28.7
2024-04-28 14:59,1714330740,98.2,10.8,29.2
2024-04-28 15:59,1714334340,97.9,10.5,29.5
2024-04-28 16:59,1714337940,97.7,10.2,29.8
2024-04-28 17:59,1714341540,97.7,10.1,29.2
2024-04-28 18:59,1714345140,97.7,10.5,28.1
2024-04-28 19:59,1714348740,97.7,11.4,25.4
2024-04-28 20:59,1714352340,97.7,13.7,23.9
2024-04-28 21:59,1714355940,97.7,13.6,21.8
2024-04-28 22:59,1714359540,97.7,12.1,19.4
2024-04-28 23:59,1714363140,97.7,11.7,17.8
2024-04-29 00:59,1714366740,97.7,12.2,16.8
2024-04-29 01:59,1714370340,97.7,13.0,16.0
2024-04-29 02:59,1714373940,97.7,13.5,15.3
2024-04-29 03:59,1714377540,97.8,14.0,14.8
2024-04-29 04:59,1714381140,97.7,14.2,14.3
2024-04-29 05:59,1714384740,97.7,14.2,14.3
2024-04-29 06:59,1714388340,97.7,14.5,17.8
2024-04-29 07:59,1714391940,97.7,17.0,20.9
2024-04-29 08:59,1714395540,97.7,12.2,24.8
2024-04-29 09:59,1714399140,97.7,7.9,26.7
2024-04-29 10:59,1714402740,97.7,7.8,27.4
2024-04-29 11:59,1714406340,97.7,7.4,28.3
2024-04-29 12:59,1714409940,97.7,7.5,28.8
2024-04-29 13:59,1714413540,97.7,7.6,29.7
2024-04-29 14:59,1714417140,97.7,7.5,29.6
2024-04-29 15:59,1714420740,97.7,7.0,29.8
2024-04-29 16:59,1714424340,97.7,7.1,30.4
2024-04-29 17:59,1714427940,97.2,7.3,30.2
2024-04-29 18:59,1714431540,97.2,7.3,29.5
2024-04-29 19:59,1714435140,97.2,8.7,25.6
2024-04-29 20:59,1714438740,97.1,10.3,22.8
2024-04-29 21:59,1714442340,97.2,9.9,20.7
2024-04-29 22:59,1714445940,97.2,9.1,19.4
2024-04-29 23:59,1714449540,97.1,9.3,18.9
2024-04-30 00:59,1714453140,97.2,9.4,18.0
2024-04-30 01:59,1714456740,97.2,10.1,17.1
2024-04-30 02:59,1714460340,97.2,10.1,16.2
2024-04-30 03:59,1714463940,97.2,9.7,16.0
2024-04-30 04:59,1714467540,97.3,9.0,15.2
2024-04-30 05:59,1714471140,97.2,9.4,15.2
2024-04-30 06:59,1714474740,97.2,10.0,16.3
2024-04-30 07:59,1714478340,97.2,11.1,18.7
2024-04-30 08:59,1714481940,97.2,8.8,20.1
2024-04-30 09:59,1714485540,97.1,7.0,22.9
2024-04-30 10:59,1714489140,97.2,6.8,23.6
2024-04-30 11:59,1714492740,97.2,4.2,22.0
2024-04-30 12:59,1714496340,97.1,2.7,20.1
2024-04-30 13:59,1714499940,97.2,3.1,19.2
2024-04-30 14:59,1714503540,97.2,2.5,18.9
2024-04-30 15:59,1714507140,97.2,2.6,19.6
2024-04-30 16:59,1714510740,97.2,2.9,20.5
2024-04-30 17:59,1714514340,97.2,3.2,22.0
2024-04-30 18:59,1714517940,97.2,2.9,20.5
2024-04-30 19:59,1714521540,97.2,3.3,19.0
2024-04-30 20:59,1714525140,97.2,3.8,17.7
2024-04-30 21:59,1714528740,97.3,4.3,17.1
2024-04-30 22:59,1714532340,97.2,4.5,16.4
2024-04-30 23:59,1714535940,97.2,4.6,15.9
2024-05-01 00:59,1714539540,97.2,4.9,14.9
2024-05-01 01:59,1714543140,97.2,4.1,13.9
2024-05-01 02:59,1714546740,97.3,4.1,12.6
